Regional Weather Roundup
Issued by NWS

Home | Current Version | Previous Version | Text Only | Print | Product List | Glossary Off
Versions: 1 2 3 4 5 6 7 8 9 10 11 12 13 14 15 16 17 18 19 20 21 22 23 24 25 26 27 28 29 30 31 32 33 34 35 36 37 38 39 40 41 42 43 44 45 46 47 48 49 50

000
ASUS43 KLMK 201702
RWRKY
KENTUCKY REGIONAL WEATHER ROUNDUP
NATIONAL WEATHER SERVICE LOUISVILLE KY
100 PM EDT WED SEP 20 2017

NOTE "FAIR" INDICATES FEW OR NO CLOUDS BELOW 12,000 FEET
WITH NO SIGNIFICANT WEATHER AND/OR OBSTRUCTIONS TO VISIBILITY.

KYZ001>023-026-027-061>063-070>075-201800-
WESTERN AND SOUTH CENTRAL KENTUCKY

CITY           SKY/WX    TMP DP  RH WIND       PRES   REMARKS
PADUCAH        MOSUNNY   87  71  58 SW8G16    29.98F HX  93
HENDERSON      PTSUNNY   89  73  59 SW9       29.99F HX  97
OWENSBORO      MOSUNNY   88  74  63 VRB7      30.00F HX  96
HOPKINSVILLE   SUNNY     86  73  63 SW7       30.02F HX  93
BOWLING GREEN  MOSUNNY   85  73  67 SW8       30.04F HX  91
GLASGOW        MOSUNNY   85  71  61 NW3       30.05S HX  90
$$

KYZ024-025-028>034-038-045-046-053-201800-
NORTH CENTRAL KENTUCKY

CITY           SKY/WX    TMP DP  RH WIND       PRES   REMARKS
LOUISVILLE/SDF PTSUNNY   83  72  69 VRB5      30.03F
LOUISVILLE/LOU MOSUNNY   82  73  74 S5        30.03F
FORT KNOX      MOSUNNY   84  71  65 S7        30.02F
$$

KYZ035>037-039>044-047>052-055>060-089>105-201800-
NORTHEAST KENTUCKY

CITY           SKY/WX    TMP DP  RH WIND       PRES   REMARKS
LEXINGTON      MOSUNNY   80  69  69 SW3       30.07S
COVINGTON      PTSUNNY   81  71  71 SW5       30.04F
FRANKFORT      MOSUNNY   82  69  64 CALM      30.04F
$$

KYZ054-064>069-076>088-106>120-201800-
SOUTHEAST KENTUCKY

CITY           SKY/WX    TMP DP  RH WIND       PRES   REMARKS
JACKSON        PTSUNNY   77  67  71 CALM      30.10S
LONDON         PTSUNNY   79  66  64 W3        30.09F
SOMERSET       MOSUNNY   79  66  65 CALM      30.09F
MIDDLESBORO    MOSUNNY   80  68  65 NE3       30.10F
MONTICELLO     PTSUNNY   82  72  71 MISG      30.09F
$$




USA.gov is the U.S. government's official web portal to all federal, state and local government web resources and services.